Year,Month,Day,Hour,Minute,Value (Times are PST for temperature in C)
2010,07,31,00,00,18.70
2010,07,31,00,01,18.60
2010,07,31,00,02,18.60
2010,07,31,00,03,18.60
2010,07,31,00,04,18.50
2010,07,31,00,05,18.50
2010,07,31,00,06,18.50
2010,07,31,00,07,18.50
2010,07,31,00,08,18.40
2010,07,31,00,09,18.40
2010,07,31,00,10,18.40
2010,07,31,00,11,18.30
2010,07,31,00,12,18.30
2010,07,31,00,13,18.20
2010,07,31,00,14,18.20
2010,07,31,00,15,18.20
2010,07,31,00,16,18.20
2010,07,31,00,17,18.20
2010,07,31,00,18,18.20
2010,07,31,00,19,18.20
2010,07,31,00,20,18.20
2010,07,31,00,21,18.20
2010,07,31,00,22,18.10
2010,07,31,00,23,18.10
2010,07,31,00,24,18.10
2010,07,31,00,25,18.10
2010,07,31,00,26,18.10
2010,07,31,00,27,18.00
2010,07,31,00,28,17.90
2010,07,31,00,29,17.90
2010,07,31,00,30,17.90
2010,07,31,00,31,17.90
2010,07,31,00,32,17.90
2010,07,31,00,33,17.90
2010,07,31,00,34,17.90
2010,07,31,00,35,17.90
2010,07,31,00,36,17.90
2010,07,31,00,37,17.90
2010,07,31,00,38,17.90
2010,07,31,00,39,17.90
2010,07,31,00,40,17.90
2010,07,31,00,41,17.80
2010,07,31,00,42,17.80
2010,07,31,00,43,17.80
2010,07,31,00,44,17.80
2010,07,31,00,45,17.70
2010,07,31,00,46,17.70
2010,07,31,00,47,17.70
2010,07,31,00,48,17.70
2010,07,31,00,49,17.60
2010,07,31,00,50,17.60
2010,07,31,00,51,17.60
2010,07,31,00,52,17.50
2010,07,31,00,53,17.50
2010,07,31,00,54,17.40
2010,07,31,00,55,17.40
2010,07,31,00,56,17.40
2010,07,31,00,57,17.30
2010,07,31,00,58,17.30
2010,07,31,00,59,17.30
2010,07,31,01,00,17.30
2010,07,31,01,01,17.20
2010,07,31,01,02,17.20
2010,07,31,01,03,17.20
2010,07,31,01,04,17.10
2010,07,31,01,05,17.10
2010,07,31,01,06,17.00
2010,07,31,01,07,17.00
2010,07,31,01,08,17.00
2010,07,31,01,09,16.90
2010,07,31,01,10,16.90
2010,07,31,01,11,16.80
2010,07,31,01,12,16.80
2010,07,31,01,13,16.70
2010,07,31,01,14,16.70
2010,07,31,01,15,16.70
2010,07,31,01,16,16.60
2010,07,31,01,17,16.60
2010,07,31,01,18,16.50
2010,07,31,01,19,16.40
2010,07,31,01,20,16.40
2010,07,31,01,21,16.40
2010,07,31,01,22,16.40
2010,07,31,01,23,16.40
2010,07,31,01,24,16.30
2010,07,31,01,25,16.30
2010,07,31,01,26,16.30
2010,07,31,01,27,16.20
2010,07,31,01,28,16.20
2010,07,31,01,29,16.20
2010,07,31,01,30,16.20
2010,07,31,01,31,16.10
2010,07,31,01,32,16.10
2010,07,31,01,33,16.10
2010,07,31,01,34,16.00
2010,07,31,01,35,15.90
2010,07,31,01,36,15.90
2010,07,31,01,37,15.80
2010,07,31,01,38,15.80
2010,07,31,01,39,15.80
2010,07,31,01,40,15.80
2010,07,31,01,41,15.80
2010,07,31,01,42,15.70
2010,07,31,01,43,15.70
2010,07,31,01,44,15.70
2010,07,31,01,45,15.60
2010,07,31,01,46,15.60
2010,07,31,01,47,15.60
2010,07,31,01,48,15.50
2010,07,31,01,49,15.50
2010,07,31,01,50,15.50
2010,07,31,01,51,15.40
2010,07,31,01,52,15.40
2010,07,31,01,53,15.40
2010,07,31,01,54,15.30
2010,07,31,01,55,15.30
2010,07,31,01,56,15.30
2010,07,31,01,57,15.30
2010,07,31,01,58,15.30
2010,07,31,01,59,15.30
2010,07,31,02,00,15.30
2010,07,31,02,01,15.20
2010,07,31,02,02,15.20
2010,07,31,02,03,15.20
2010,07,31,02,04,15.20
2010,07,31,02,05,15.10
2010,07,31,02,06,15.10
2010,07,31,02,07,15.10
2010,07,31,02,08,15.00
2010,07,31,02,09,15.00
2010,07,31,02,10,15.00
2010,07,31,02,11,15.00
2010,07,31,02,12,15.00
2010,07,31,02,13,15.00
2010,07,31,02,14,15.00
2010,07,31,02,15,15.00
2010,07,31,02,16,15.00
2010,07,31,02,17,15.00
2010,07,31,02,18,15.00
2010,07,31,02,19,15.00
2010,07,31,02,20,15.10
2010,07,31,02,21,15.10
2010,07,31,02,22,15.10
2010,07,31,02,23,15.10
2010,07,31,02,24,15.10
2010,07,31,02,25,15.20
2010,07,31,02,26,15.20
2010,07,31,02,27,15.20
2010,07,31,02,28,15.20
2010,07,31,02,29,15.30
2010,07,31,02,30,15.30
2010,07,31,02,31,15.30
2010,07,31,02,32,15.30
2010,07,31,02,33,15.30
2010,07,31,02,34,15.30
2010,07,31,02,35,15.30
2010,07,31,02,36,15.30
2010,07,31,02,37,15.30
2010,07,31,02,38,15.30
2010,07,31,02,39,15.30
2010,07,31,02,40,15.30
2010,07,31,02,41,15.20
2010,07,31,02,42,15.10
2010,07,31,02,43,15.00
2010,07,31,02,44,15.00
2010,07,31,02,45,14.90
2010,07,31,02,46,14.90
2010,07,31,02,47,14.80
2010,07,31,02,48,14.80
2010,07,31,02,49,14.70
2010,07,31,02,50,14.70
2010,07,31,02,51,14.60
2010,07,31,02,52,14.60
2010,07,31,02,53,14.50
2010,07,31,02,54,14.50
2010,07,31,02,55,14.50
2010,07,31,02,56,14.40
2010,07,31,02,57,14.40
2010,07,31,02,58,14.30
2010,07,31,02,59,14.30
2010,07,31,03,00,14.20
2010,07,31,03,01,14.20
2010,07,31,03,02,14.20
2010,07,31,03,03,14.10
2010,07,31,03,04,14.00
2010,07,31,03,05,14.00
2010,07,31,03,06,13.90
2010,07,31,03,07,13.90
2010,07,31,03,08,13.80
2010,07,31,03,09,13.70
2010,07,31,03,10,13.70
2010,07,31,03,11,13.70
2010,07,31,03,12,13.60
2010,07,31,03,13,13.60
2010,07,31,03,14,13.50
2010,07,31,03,15,13.40
2010,07,31,03,16,13.40
2010,07,31,03,17,13.30
2010,07,31,03,18,13.30
2010,07,31,03,19,13.30
2010,07,31,03,20,13.30
2010,07,31,03,21,13.30
2010,07,31,03,22,13.30
2010,07,31,03,23,13.20
2010,07,31,03,24,13.20
2010,07,31,03,25,13.10
2010,07,31,03,26,13.10
2010,07,31,03,27,13.00
2010,07,31,03,28,13.00
2010,07,31,03,29,13.00
2010,07,31,03,30,12.90
2010,07,31,03,31,12.90
2010,07,31,03,32,12.80
2010,07,31,03,33,12.80
2010,07,31,03,34,12.80
2010,07,31,03,35,12.80
2010,07,31,03,36,12.80
2010,07,31,03,37,12.80
2010,07,31,03,38,12.80
2010,07,31,03,39,12.70
2010,07,31,03,40,12.70
2010,07,31,03,41,12.70
2010,07,31,03,42,12.70
2010,07,31,03,43,12.70
2010,07,31,03,44,12.60
2010,07,31,03,45,12.60
2010,07,31,03,46,12.60
2010,07,31,03,47,12.60
2010,07,31,03,48,12.60
2010,07,31,03,49,12.50
2010,07,31,03,50,12.50
2010,07,31,03,51,12.50
2010,07,31,03,52,12.50
2010,07,31,03,53,12.50
2010,07,31,03,54,12.40
2010,07,31,03,55,12.40
2010,07,31,03,56,12.40
2010,07,31,03,57,12.40
2010,07,31,03,58,12.40
2010,07,31,03,59,12.30
2010,07,31,04,00,12.30
2010,07,31,04,01,12.30
2010,07,31,04,02,12.30
2010,07,31,04,03,12.30
2010,07,31,04,04,12.30
2010,07,31,04,05,12.30
2010,07,31,04,06,12.30
2010,07,31,04,07,12.20
2010,07,31,04,08,12.20
2010,07,31,04,09,12.20
2010,07,31,04,10,12.20
2010,07,31,04,11,12.20
2010,07,31,04,12,12.20
2010,07,31,04,13,12.10
2010,07,31,04,14,12.10
2010,07,31,04,15,12.10
2010,07,31,04,16,12.10
2010,07,31,04,17,12.10
2010,07,31,04,18,12.10
2010,07,31,04,19,12.10
2010,07,31,04,20,12.10
2010,07,31,04,21,12.10
2010,07,31,04,22,12.10
2010,07,31,04,23,12.10
2010,07,31,04,24,12.10
2010,07,31,04,25,12.10
2010,07,31,04,26,12.10
2010,07,31,04,27,12.10
2010,07,31,04,28,12.10
2010,07,31,04,29,12.10
2010,07,31,04,30,12.10
2010,07,31,04,31,12.10
2010,07,31,04,32,12.10
2010,07,31,04,33,12.10
2010,07,31,04,34,12.10
2010,07,31,04,35,12.10
2010,07,31,04,36,12.10
2010,07,31,04,37,12.10
2010,07,31,04,38,12.10
2010,07,31,04,39,12.10
2010,07,31,04,40,12.10
2010,07,31,04,41,12.10
2010,07,31,04,42,12.10
2010,07,31,04,43,12.10
2010,07,31,04,44,12.10
2010,07,31,04,45,12.10
2010,07,31,04,46,12.10
2010,07,31,04,47,12.10
2010,07,31,04,48,12.20
2010,07,31,04,49,12.20
2010,07,31,04,50,12.10
2010,07,31,04,51,12.10
2010,07,31,04,52,12.10
2010,07,31,04,53,12.20
2010,07,31,04,54,12.20
2010,07,31,04,55,12.20
2010,07,31,04,56,12.20
2010,07,31,04,57,12.30
2010,07,31,04,58,12.30
2010,07,31,04,59,12.30
2010,07,31,05,00,12.30
2010,07,31,05,01,12.30
2010,07,31,05,02,12.30
2010,07,31,05,03,12.30
2010,07,31,05,04,12.30
2010,07,31,05,05,12.30
2010,07,31,05,06,12.30
2010,07,31,05,07,12.30
2010,07,31,05,08,12.30
2010,07,31,05,09,12.30
2010,07,31,05,10,12.30
2010,07,31,05,11,12.30
2010,07,31,05,12,12.30
2010,07,31,05,13,12.30
2010,07,31,05,14,12.30
2010,07,31,05,15,12.30
2010,07,31,05,16,12.30
2010,07,31,05,17,12.30
2010,07,31,05,18,12.30
2010,07,31,05,19,12.30
2010,07,31,05,20,12.30
2010,07,31,05,21,12.30
2010,07,31,05,22,12.30
2010,07,31,05,23,12.30
2010,07,31,05,24,12.30
2010,07,31,05,25,12.30
2010,07,31,05,26,12.30
2010,07,31,05,27,12.30
2010,07,31,05,28,12.30
2010,07,31,05,29,12.30
2010,07,31,05,30,12.30
2010,07,31,05,31,12.30
2010,07,31,05,32,12.30
2010,07,31,05,33,12.30
2010,07,31,05,34,12.30
2010,07,31,05,35,12.30
2010,07,31,05,36,12.30
2010,07,31,05,37,12.30
2010,07,31,05,38,12.30
2010,07,31,05,39,12.30
2010,07,31,05,40,12.30
2010,07,31,05,41,12.30
2010,07,31,05,42,12.30
2010,07,31,05,43,12.30
2010,07,31,05,44,12.30
2010,07,31,05,45,12.30
2010,07,31,05,46,12.30
2010,07,31,05,47,12.30
2010,07,31,05,48,12.30
2010,07,31,05,49,12.30
2010,07,31,05,50,12.30
2010,07,31,05,51,12.30
2010,07,31,05,52,12.30
2010,07,31,05,53,12.30
2010,07,31,05,54,12.30
2010,07,31,05,55,12.30
2010,07,31,05,56,12.30
2010,07,31,05,57,12.30
2010,07,31,05,58,12.30
2010,07,31,05,59,12.30
2010,07,31,06,00,12.30
2010,07,31,06,01,12.30
2010,07,31,06,02,12.30
2010,07,31,06,03,12.30
2010,07,31,06,04,12.30
2010,07,31,06,05,12.30
2010,07,31,06,06,12.30
2010,07,31,06,07,12.30
2010,07,31,06,08,12.30
2010,07,31,06,09,12.20
2010,07,31,06,10,12.20
2010,07,31,06,11,12.20
2010,07,31,06,12,12.20
2010,07,31,06,13,12.10
2010,07,31,06,14,12.10
2010,07,31,06,15,12.10
2010,07,31,06,16,12.10
2010,07,31,06,17,12.10
2010,07,31,06,18,12.10
2010,07,31,06,19,12.10
2010,07,31,06,20,12.10
2010,07,31,06,21,12.10
2010,07,31,06,22,12.10
2010,07,31,06,23,12.10
2010,07,31,06,24,12.20
2010,07,31,06,25,12.20
2010,07,31,06,26,12.20
2010,07,31,06,27,12.30
2010,07,31,06,28,12.30
2010,07,31,06,29,12.30
2010,07,31,06,30,12.40
2010,07,31,06,31,12.50
2010,07,31,06,32,12.50
2010,07,31,06,33,12.50
2010,07,31,06,34,12.50
2010,07,31,06,35,12.60
2010,07,31,06,36,12.60
2010,07,31,06,37,12.70
2010,07,31,06,38,12.70
2010,07,31,06,39,12.80
2010,07,31,06,40,12.80
2010,07,31,06,41,12.80
2010,07,31,06,42,12.80
2010,07,31,06,43,12.80
2010,07,31,06,44,12.80
2010,07,31,06,45,12.80
2010,07,31,06,46,12.80
2010,07,31,06,47,12.80
2010,07,31,06,48,12.80
2010,07,31,06,49,12.90
2010,07,31,06,50,12.90
2010,07,31,06,51,12.90
2010,07,31,06,52,13.00
2010,07,31,06,53,13.00
2010,07,31,06,54,13.00
2010,07,31,06,55,13.10
2010,07,31,06,56,13.10
2010,07,31,06,57,13.20
2010,07,31,06,58,13.20
2010,07,31,06,59,13.20
2010,07,31,07,00,13.30
2010,07,31,07,01,13.30
2010,07,31,07,02,13.30
2010,07,31,07,03,13.40
2010,07,31,07,04,13.50
2010,07,31,07,05,13.60
2010,07,31,07,06,13.60
2010,07,31,07,07,13.70
2010,07,31,07,08,13.70
2010,07,31,07,09,13.70
2010,07,31,07,10,13.80
2010,07,31,07,11,13.90
2010,07,31,07,12,14.00
2010,07,31,07,13,14.10
2010,07,31,07,14,14.20
2010,07,31,07,15,14.30
2010,07,31,07,16,14.30
2010,07,31,07,17,14.30
2010,07,31,07,18,14.30
2010,07,31,07,19,14.40
2010,07,31,07,20,14.40
2010,07,31,07,21,14.50
2010,07,31,07,22,14.50
2010,07,31,07,23,14.60
2010,07,31,07,24,14.60
2010,07,31,07,25,14.70
2010,07,31,07,26,14.80
2010,07,31,07,27,14.90
2010,07,31,07,28,14.90
2010,07,31,07,29,15.00
2010,07,31,07,30,15.10
2010,07,31,07,31,15.20
2010,07,31,07,32,15.20
2010,07,31,07,33,15.30
2010,07,31,07,34,15.40
2010,07,31,07,35,15.50
2010,07,31,07,36,15.50
2010,07,31,07,37,15.60
2010,07,31,07,38,15.70
2010,07,31,07,39,15.80
2010,07,31,07,40,15.90
2010,07,31,07,41,16.00
2010,07,31,07,42,16.10
2010,07,31,07,43,16.20
2010,07,31,07,44,16.30
2010,07,31,07,45,16.40
2010,07,31,07,46,16.50
2010,07,31,07,47,16.60
2010,07,31,07,48,16.70
2010,07,31,07,49,16.70
2010,07,31,07,50,16.80
2010,07,31,07,51,16.90
2010,07,31,07,52,16.90
2010,07,31,07,53,16.90
2010,07,31,07,54,16.90
2010,07,31,07,55,16.90
2010,07,31,07,56,16.90
2010,07,31,07,57,16.90
2010,07,31,07,58,16.80
2010,07,31,07,59,16.90
2010,07,31,08,00,16.90
2010,07,31,08,01,16.90
2010,07,31,08,02,16.90
2010,07,31,08,03,16.90
2010,07,31,08,04,16.90
2010,07,31,08,05,17.00
2010,07,31,08,06,17.10
2010,07,31,08,07,17.20
2010,07,31,08,08,17.20
2010,07,31,08,09,17.30
2010,07,31,08,10,17.30
2010,07,31,08,11,17.40
2010,07,31,08,12,17.50
2010,07,31,08,13,17.50
2010,07,31,08,14,17.60
2010,07,31,08,15,17.70
2010,07,31,08,16,17.70
2010,07,31,08,17,17.70
2010,07,31,08,18,17.80
2010,07,31,08,19,17.80
2010,07,31,08,20,17.80
2010,07,31,08,21,17.70
2010,07,31,08,22,17.80
2010,07,31,08,23,17.90
2010,07,31,08,24,17.90
2010,07,31,08,25,17.90
2010,07,31,08,26,18.00
2010,07,31,08,27,18.10
2010,07,31,08,28,18.20
2010,07,31,08,29,18.20
2010,07,31,08,30,18.20
2010,07,31,08,31,18.20
2010,07,31,08,32,18.30
2010,07,31,08,33,18.40
2010,07,31,08,34,18.50
2010,07,31,08,35,18.50
2010,07,31,08,36,18.40
2010,07,31,08,37,18.20
2010,07,31,08,38,18.20
2010,07,31,08,39,18.20
2010,07,31,08,40,18.20
2010,07,31,08,41,18.20
2010,07,31,08,42,18.20
2010,07,31,08,43,18.10
2010,07,31,08,44,18.10
2010,07,31,08,45,18.10
2010,07,31,08,46,18.10
2010,07,31,08,47,18.20
2010,07,31,08,48,18.20
2010,07,31,08,49,18.20
2010,07,31,08,50,18.20
2010,07,31,08,51,18.20
2010,07,31,08,52,18.20
2010,07,31,08,53,18.10
2010,07,31,08,54,18.10
2010,07,31,08,55,18.20
2010,07,31,08,56,18.20
2010,07,31,08,57,18.20
2010,07,31,08,58,18.20
2010,07,31,08,59,18.30
2010,07,31,09,00,18.30
2010,07,31,09,01,18.30
2010,07,31,09,02,18.30
2010,07,31,09,03,18.30
2010,07,31,09,04,18.20
2010,07,31,09,05,18.10
2010,07,31,09,06,18.10
2010,07,31,09,07,18.10
2010,07,31,09,08,18.20
2010,07,31,09,09,18.20
2010,07,31,09,10,18.30
2010,07,31,09,11,18.40
2010,07,31,09,12,18.50
2010,07,31,09,13,18.60
2010,07,31,09,14,18.60
2010,07,31,09,15,18.60
2010,07,31,09,16,18.70
2010,07,31,09,17,18.70
2010,07,31,09,18,18.80
2010,07,31,09,19,18.90
2010,07,31,09,20,18.90
2010,07,31,09,21,19.00
2010,07,31,09,22,19.10
2010,07,31,09,23,19.10
2010,07,31,09,24,19.10
2010,07,31,09,25,19.10
2010,07,31,09,26,19.10
2010,07,31,09,27,19.10
2010,07,31,09,28,18.90
2010,07,31,09,29,18.90
2010,07,31,09,30,18.80
2010,07,31,09,31,18.60
2010,07,31,09,32,18.50
2010,07,31,09,33,18.50
2010,07,31,09,34,18.50
2010,07,31,09,35,18.50
2010,07,31,09,36,18.40
2010,07,31,09,37,18.40
2010,07,31,09,38,18.40
2010,07,31,09,39,18.30
2010,07,31,09,40,18.30
2010,07,31,09,41,18.30
2010,07,31,09,42,18.30
2010,07,31,09,43,18.30
2010,07,31,09,44,18.40
2010,07,31,09,45,18.50
2010,07,31,09,46,18.50
2010,07,31,09,47,18.60
2010,07,31,09,48,18.70
2010,07,31,09,49,18.70
2010,07,31,09,50,18.80
2010,07,31,09,51,18.60
2010,07,31,09,52,18.40
2010,07,31,09,53,18.30
2010,07,31,09,54,18.00
2010,07,31,09,55,17.90
2010,07,31,09,56,17.80
2010,07,31,09,57,17.90
2010,07,31,09,58,17.90
2010,07,31,09,59,17.90
2010,07,31,10,00,17.90
2010,07,31,10,01,17.90
2010,07,31,10,02,17.90
2010,07,31,10,03,18.00
2010,07,31,10,04,18.10
2010,07,31,10,05,18.20
2010,07,31,10,06,18.40
2010,07,31,10,07,18.60
2010,07,31,10,08,18.70
2010,07,31,10,09,18.90
2010,07,31,10,10,19.00
2010,07,31,10,11,19.10
2010,07,31,10,12,19.20
2010,07,31,10,13,19.20
2010,07,31,10,14,19.10
2010,07,31,10,15,19.00
2010,07,31,10,16,18.90
2010,07,31,10,17,18.80
2010,07,31,10,18,18.70
2010,07,31,10,19,18.70
2010,07,31,10,20,18.60
2010,07,31,10,21,18.60
2010,07,31,10,22,18.50
2010,07,31,10,23,18.50
2010,07,31,10,24,18.40
2010,07,31,10,25,18.40
2010,07,31,10,26,18.50
2010,07,31,10,27,18.60
2010,07,31,10,28,18.70
2010,07,31,10,29,18.70
2010,07,31,10,30,18.80
2010,07,31,10,31,18.80
2010,07,31,10,32,18.90
2010,07,31,10,33,18.90
2010,07,31,10,34,19.00
2010,07,31,10,35,19.10
2010,07,31,10,36,19.10
2010,07,31,10,37,19.20
2010,07,31,10,38,19.30
2010,07,31,10,39,19.30
2010,07,31,10,40,19.30
2010,07,31,10,41,19.30
2010,07,31,10,42,19.30
2010,07,31,10,43,19.40
2010,07,31,10,44,19.50
2010,07,31,10,45,19.60
2010,07,31,10,46,19.50
2010,07,31,10,47,19.50
2010,07,31,10,48,19.50
2010,07,31,10,49,19.30
2010,07,31,10,50,19.20
2010,07,31,10,51,19.10
2010,07,31,10,52,19.10
2010,07,31,10,53,18.90
2010,07,31,10,54,18.80
2010,07,31,10,55,18.70
2010,07,31,10,56,18.60
2010,07,31,10,57,18.50
2010,07,31,10,58,18.40
2010,07,31,10,59,18.20
2010,07,31,11,00,18.20
2010,07,31,11,01,18.20
2010,07,31,11,02,18.10
2010,07,31,11,03,18.10
2010,07,31,11,04,18.20
2010,07,31,11,05,18.20
2010,07,31,11,06,18.20
2010,07,31,11,07,18.30
2010,07,31,11,08,18.30
2010,07,31,11,09,18.30
2010,07,31,11,10,18.30
2010,07,31,11,11,18.30
2010,07,31,11,12,18.00
2010,07,31,11,13,17.60
2010,07,31,11,14,17.20
2010,07,31,11,15,17.00
2010,07,31,11,16,17.00
2010,07,31,11,17,16.90
2010,07,31,11,18,17.00
2010,07,31,11,19,17.10
2010,07,31,11,20,17.20
2010,07,31,11,21,17.30
2010,07,31,11,22,17.30
2010,07,31,11,23,17.20
2010,07,31,11,24,17.10
2010,07,31,11,25,17.10
2010,07,31,11,26,17.00
2010,07,31,11,27,16.90
2010,07,31,11,28,17.00
2010,07,31,11,29,17.10
2010,07,31,11,30,17.20
2010,07,31,11,31,17.20
2010,07,31,11,32,17.20
2010,07,31,11,33,17.10
2010,07,31,11,34,17.20
2010,07,31,11,35,17.30
2010,07,31,11,36,17.40
2010,07,31,11,37,17.50
2010,07,31,11,38,17.50
2010,07,31,11,39,17.50
2010,07,31,11,40,17.50
2010,07,31,11,41,17.50
2010,07,31,11,42,17.60
2010,07,31,11,43,17.60
2010,07,31,11,44,17.50
2010,07,31,11,45,17.50
2010,07,31,11,46,17.50
2010,07,31,11,47,17.40
2010,07,31,11,48,17.40
2010,07,31,11,49,17.40
2010,07,31,11,50,17.30
2010,07,31,11,51,17.20
2010,07,31,11,52,17.20
2010,07,31,11,53,17.20
2010,07,31,11,54,17.20
2010,07,31,11,55,17.10
2010,07,31,11,56,17.00
2010,07,31,11,57,16.90
2010,07,31,11,58,16.60
2010,07,31,11,59,16.40
2010,07,31,12,00,16.10
2010,07,31,12,01,16.10
2010,07,31,12,02,16.10
2010,07,31,12,03,16.30
2010,07,31,12,04,16.40
2010,07,31,12,05,16.50
2010,07,31,12,06,16.40
2010,07,31,12,07,16.40
2010,07,31,12,08,16.50
2010,07,31,12,09,16.60
2010,07,31,12,10,16.70
2010,07,31,12,11,16.70
2010,07,31,12,12,16.80
2010,07,31,12,13,17.00
2010,07,31,12,14,17.10
2010,07,31,12,15,17.40
2010,07,31,12,16,17.60
2010,07,31,12,17,17.80
2010,07,31,12,18,17.90
2010,07,31,12,19,17.90
2010,07,31,12,20,17.90
2010,07,31,12,21,18.10
2010,07,31,12,22,18.20
2010,07,31,12,23,18.20
2010,07,31,12,24,18.30
2010,07,31,12,25,18.40
2010,07,31,12,26,18.50
2010,07,31,12,27,18.30
2010,07,31,12,28,18.10
2010,07,31,12,29,18.10
2010,07,31,12,30,18.10
2010,07,31,12,31,18.00
2010,07,31,12,32,17.90
2010,07,31,12,33,17.80
2010,07,31,12,34,17.70
2010,07,31,12,35,17.50
2010,07,31,12,36,17.20
2010,07,31,12,37,17.00
2010,07,31,12,38,16.60
2010,07,31,12,39,16.40
2010,07,31,12,40,16.20
2010,07,31,12,41,16.10
2010,07,31,12,42,15.90
2010,07,31,12,43,15.80
2010,07,31,12,44,15.80
2010,07,31,12,45,15.80
2010,07,31,12,46,15.80
2010,07,31,12,47,15.90
2010,07,31,12,48,16.00
2010,07,31,12,49,16.10
2010,07,31,12,50,16.10
2010,07,31,12,51,16.10
2010,07,31,12,52,16.20
2010,07,31,12,53,16.20
2010,07,31,12,54,16.30
2010,07,31,12,55,16.40
2010,07,31,12,56,16.40
2010,07,31,12,57,16.50
2010,07,31,12,58,16.70
2010,07,31,12,59,16.70
2010,07,31,13,00,16.70
2010,07,31,13,01,16.70
2010,07,31,13,02,16.70
2010,07,31,13,03,16.70
2010,07,31,13,04,16.60
2010,07,31,13,05,16.60
2010,07,31,13,06,16.60
2010,07,31,13,07,16.70
2010,07,31,13,08,16.80
2010,07,31,13,09,16.90
2010,07,31,13,10,17.00
2010,07,31,13,11,17.00
2010,07,31,13,12,17.10
2010,07,31,13,13,17.10
2010,07,31,13,14,17.20
2010,07,31,13,15,17.20
2010,07,31,13,16,17.20
2010,07,31,13,17,17.20
2010,07,31,13,18,17.00
2010,07,31,13,19,16.90
2010,07,31,13,20,16.80
2010,07,31,13,21,16.80
2010,07,31,13,22,16.70
2010,07,31,13,23,16.50
2010,07,31,13,24,16.30
2010,07,31,13,25,16.10
2010,07,31,13,26,16.00
2010,07,31,13,27,15.90
2010,07,31,13,28,15.80
2010,07,31,13,29,15.90
2010,07,31,13,30,16.00
2010,07,31,13,31,16.10
2010,07,31,13,32,16.10
2010,07,31,13,33,16.10
2010,07,31,13,34,16.10
2010,07,31,13,35,16.10
2010,07,31,13,36,16.10
2010,07,31,13,37,16.20
2010,07,31,13,38,16.20
2010,07,31,13,39,16.10
2010,07,31,13,40,16.10
2010,07,31,13,41,16.10
2010,07,31,13,42,16.10
2010,07,31,13,43,16.10
2010,07,31,13,44,16.00
2010,07,31,13,45,15.80
2010,07,31,13,46,15.70
2010,07,31,13,47,15.70
2010,07,31,13,48,15.60
2010,07,31,13,49,15.60
2010,07,31,13,50,15.60
2010,07,31,13,51,15.50
2010,07,31,13,52,15.30
2010,07,31,13,53,15.20
2010,07,31,13,54,15.10
2010,07,31,13,55,15.00
2010,07,31,13,56,15.00
2010,07,31,13,57,14.80
2010,07,31,13,58,14.80
2010,07,31,13,59,14.80
2010,07,31,14,00,14.90
2010,07,31,14,01,14.80
2010,07,31,14,02,14.70
2010,07,31,14,03,14.60
2010,07,31,14,04,14.60
2010,07,31,14,05,14.60
2010,07,31,14,06,14.50
2010,07,31,14,07,14.50
2010,07,31,14,08,14.40
2010,07,31,14,09,14.30
2010,07,31,14,10,14.20
2010,07,31,14,11,14.20
2010,07,31,14,12,14.20
2010,07,31,14,13,14.20
2010,07,31,14,14,14.20
2010,07,31,14,15,14.20
2010,07,31,14,16,14.10
2010,07,31,14,17,14.00
2010,07,31,14,18,14.00
2010,07,31,14,19,14.00
2010,07,31,14,20,14.10
2010,07,31,14,21,14.20
2010,07,31,14,22,14.20
2010,07,31,14,23,14.30
2010,07,31,14,24,14.50
2010,07,31,14,25,14.80
2010,07,31,14,26,14.90
2010,07,31,14,27,15.00
2010,07,31,14,28,15.10
2010,07,31,14,29,15.10
2010,07,31,14,30,15.00
2010,07,31,14,31,15.10
2010,07,31,14,32,15.10
2010,07,31,14,33,15.20
2010,07,31,14,34,15.30
2010,07,31,14,35,15.30
2010,07,31,14,36,15.30
2010,07,31,14,37,15.30
2010,07,31,14,38,15.20
2010,07,31,14,39,15.20
2010,07,31,14,40,15.20
2010,07,31,14,41,15.30
2010,07,31,14,42,15.40
2010,07,31,14,43,15.50
2010,07,31,14,44,15.40
2010,07,31,14,45,15.30
2010,07,31,14,46,15.30
2010,07,31,14,47,15.30
2010,07,31,14,48,15.30
2010,07,31,14,49,15.10
2010,07,31,14,50,15.10
2010,07,31,14,51,15.00
2010,07,31,14,52,15.00
2010,07,31,14,53,15.00
2010,07,31,14,54,14.80
2010,07,31,14,55,14.80
2010,07,31,14,56,14.80
2010,07,31,14,57,14.80
2010,07,31,14,58,14.90
2010,07,31,14,59,14.90
2010,07,31,15,00,15.00
2010,07,31,15,01,15.20
2010,07,31,15,02,15.30
2010,07,31,15,03,15.40
2010,07,31,15,04,15.50
2010,07,31,15,05,15.60
2010,07,31,15,06,15.70
2010,07,31,15,07,15.80
2010,07,31,15,08,15.80
2010,07,31,15,09,15.80
2010,07,31,15,10,15.80
2010,07,31,15,11,15.80
2010,07,31,15,12,15.70
2010,07,31,15,13,15.60
2010,07,31,15,14,15.50
2010,07,31,15,15,15.60
2010,07,31,15,16,15.60
2010,07,31,15,17,15.60
2010,07,31,15,18,15.60
2010,07,31,15,19,15.60
2010,07,31,15,20,15.70
2010,07,31,15,21,15.80
2010,07,31,15,22,15.80
2010,07,31,15,23,15.90
2010,07,31,15,24,16.00
2010,07,31,15,25,16.10
2010,07,31,15,26,16.00
2010,07,31,15,27,15.80
2010,07,31,15,28,15.80
2010,07,31,15,29,15.80
2010,07,31,15,30,15.80
2010,07,31,15,31,15.80
2010,07,31,15,32,15.80
2010,07,31,15,33,15.80
2010,07,31,15,34,15.80
2010,07,31,15,35,15.70
2010,07,31,15,36,15.60
2010,07,31,15,37,15.60
2010,07,31,15,38,15.50
2010,07,31,15,39,15.50
2010,07,31,15,40,15.40
2010,07,31,15,41,15.30
2010,07,31,15,42,15.30
2010,07,31,15,43,15.30
2010,07,31,15,44,15.40
2010,07,31,15,45,15.40
2010,07,31,15,46,15.50
2010,07,31,15,47,15.60
2010,07,31,15,48,15.60
2010,07,31,15,49,15.60
2010,07,31,15,50,15.60
2010,07,31,15,51,15.70
2010,07,31,15,52,15.90
2010,07,31,15,53,16.10
2010,07,31,15,54,16.10
2010,07,31,15,55,16.20
2010,07,31,15,56,16.30
2010,07,31,15,57,16.40
2010,07,31,15,58,16.60
2010,07,31,15,59,16.70
2010,07,31,16,00,16.70
2010,07,31,16,01,16.70
2010,07,31,16,02,16.70
2010,07,31,16,03,16.60
2010,07,31,16,04,16.60
2010,07,31,16,05,16.60
2010,07,31,16,06,16.70
2010,07,31,16,07,16.70
2010,07,31,16,08,16.70
2010,07,31,16,09,16.70
2010,07,31,16,10,16.70
2010,07,31,16,11,16.70
2010,07,31,16,12,16.70
2010,07,31,16,13,16.70
2010,07,31,16,14,16.60
2010,07,31,16,15,16.40
2010,07,31,16,16,16.40
2010,07,31,16,17,16.30
2010,07,31,16,18,16.30
2010,07,31,16,19,16.20
2010,07,31,16,20,16.20
2010,07,31,16,21,16.20
2010,07,31,16,22,16.30
2010,07,31,16,23,16.40
2010,07,31,16,24,16.40
2010,07,31,16,25,16.40
2010,07,31,16,26,16.40
2010,07,31,16,27,16.50
2010,07,31,16,28,16.60
2010,07,31,16,29,16.70
2010,07,31,16,30,16.70
2010,07,31,16,31,16.80
2010,07,31,16,32,16.90
2010,07,31,16,33,16.90
2010,07,31,16,34,16.90
2010,07,31,16,35,17.00
2010,07,31,16,36,17.10
2010,07,31,16,37,17.30
2010,07,31,16,38,17.40
2010,07,31,16,39,17.50
2010,07,31,16,40,17.70
2010,07,31,16,41,17.90
2010,07,31,16,42,18.00
2010,07,31,16,43,18.10
2010,07,31,16,44,18.20
2010,07,31,16,45,18.30
2010,07,31,16,46,18.40
2010,07,31,16,47,18.50
2010,07,31,16,48,18.70
2010,07,31,16,49,18.80
2010,07,31,16,50,18.80
2010,07,31,16,51,18.90
2010,07,31,16,52,18.90
2010,07,31,16,53,19.10
2010,07,31,16,54,19.10
2010,07,31,16,55,19.20
2010,07,31,16,56,19.30
2010,07,31,16,57,19.30
2010,07,31,16,58,19.50
2010,07,31,16,59,19.50
2010,07,31,17,00,19.50
2010,07,31,17,01,19.50
2010,07,31,17,02,19.50
2010,07,31,17,03,19.50
2010,07,31,17,04,19.40
2010,07,31,17,05,19.40
2010,07,31,17,06,19.50
2010,07,31,17,07,19.60
2010,07,31,17,08,19.70
2010,07,31,17,09,19.90
2010,07,31,17,10,20.00
2010,07,31,17,11,20.10
2010,07,31,17,12,20.20
2010,07,31,17,13,20.20
2010,07,31,17,14,20.20
2010,07,31,17,15,20.30
2010,07,31,17,16,20.40
2010,07,31,17,17,20.40
2010,07,31,17,18,20.50
2010,07,31,17,19,20.50